Regional Weather Roundup
Issued by NWS Albany, NY

Home | Current Version | Previous Version | Graphics & Text | Print | Product List | Glossary Off
Versions: 1 2 3 4 5 6 7 8 9 10 11 12 13 14 15 16 17 18 19 20 21 22 23 24 25 26 27

000
ASUS41 KALY 232010
RWRALY

NEW YORK STATE HOURLY WEATHER ROUNDUP
NATIONAL WEATHER SERVICE ALBANY NY
400 PM EDT THU MAR 23 2017

NOTE: "FAIR" INDICATES FEW OR NO CLOUDS BELOW 12,000 FEET WITH NO
SIGNIFICANT WEATHER AND/OR NO OBSTRUCTIONS TO VISIBILITY.

NYZ032-033-038>043-046>054-057>066-NYZ062>081-082-084-232100-
EAST


CITY           SKY/WX    TMP DP  RH WIND       PRES   REMARKS
ALBANY         MOSUNNY   36   6  28 W18G24    30.50F WCI  26
GLENS FALLS    SUNNY     39   2  21 NW13      30.45F WCI  31
POUGHKEEPSIE   SUNNY     37  -1  20 NW7       30.49F WCI  32
NEWBURGH       SUNNY     37   3  23 NW14G25   30.50S WCI  29
MONTGOMERY     SUNNY     39  -2  17 W10G18    30.48F WCI  32
WHITE PLAINS   SUNNY     39   1  20 NW10G20   30.49F WCI  32
ISLIP          MOSUNNY   39   1  20 NW16G22   30.51F WCI  30
NEW YORK CITY  MOSUNNY   43  -1  16 NW17      30.52F
CENTRAL PARK   SUNNY     41  -2  16 NW8G16    30.54F
$$

NYZ005>009-017-018-044>046-055-056-232100-
CENTRAL


CITY           SKY/WX    TMP DP  RH WIND       PRES   REMARKS
FULTON         SUNNY     33  10  38 SW8       30.52F WCI  26
SYRACUSE       MOSUNNY   32   9  38 SW12      30.53F WCI  23
ROME           SUNNY     32  10  40 W12       30.53F WCI  23
ELMIRA         SUNNY     39   5  24 SW7       30.47F WCI  34
BINGHAMTON     SUNNY     30   1  29 CALM      30.45F
MONTICELLO     SUNNY     34   1  25 NW13      30.46F WCI  25
$$

NYZ026>034-041>043-087-232100-
NORTH


CITY           SKY/WX    TMP DP  RH WIND       PRES   REMARKS
WATERTOWN      SUNNY     31  15  52 W17       30.53F WCI  19
FORT DRUM      NOT AVBL
MASSENA        SUNNY     34   6  31 W14       30.50  WCI  25
SARANAC LAKE   SUNNY     29  -1  27 NW7       30.38S WCI  22
PLATTSBURGH    SUNNY     34   1  24 W9        30.46F WCI  27
$$

NYZ001>004-010>016-019>021-085-232100-
WEST


CITY           SKY/WX    TMP DP  RH WIND       PRES   REMARKS
NIAGARA FALLS  SUNNY     38   6  26 W3        30.48F
BUFFALO        PTSUNNY   38  11  32 W6        30.47F WCI  33
DUNKIRK        SUNNY     33  19  56 N8        30.47F WCI  26
JAMESTOWN      SUNNY     37   7  28 S3        30.40F
WELLSVILLE     SUNNY     39  -5  15 VRB3      30.40F
ROCHESTER      MOSUNNY   36  10  34 CALM      30.51F
PENN YAN       SUNNY     34  11  38 E6        30.49F WCI  29
$$

             KEY
       WCI = WIND CHILL INDEX
       VSB = VISIBILITY
       HX  = HEAT INDEX
$$




USA.gov is the U.S. government's official web portal to all federal, state and local government web resources and services.